Location: Ariel
(45.9570°N, 122.5700°W)
Time: 11:28:35
(UTC-08:00)

ITAMSAT 1 - Visible Passes

Search period start: 20 November 2019 00:00
Search period end: 30 November 2019 00:00
Orbit: 785 x 796 km, 98.9° (Epoch: 19 November)

Date Brightness Start Highest point End Pass type
(mag) Time Alt. Az. Time Alt. Az. Time Alt. Az.
20 Nov 9.8 04:49:25 10° NE 04:53:47 26° E 04:58:06 10° SSE visible
20 Nov 7.9 06:28:26 10° N 06:33:25 45° WNW 06:38:21 10° SW visible
20 Nov 10.3 17:50:07 10° SW 17:54:12 23° W 17:58:18 10° NW visible
21 Nov 10.6 04:21:12 10° NE 04:24:00 14° E 04:26:47 10° ESE visible
21 Nov 7.6 05:58:49 10° NNE 06:04:05 80° WNW 06:09:16 10° SSW visible
21 Nov 9.2 17:19:37 10° SSW 17:24:31 40° W 17:29:28 10° NNW visible
22 Nov 8.3 05:29:26 10° NNE 05:34:37 58° ESE 05:39:44 10° S visible
23 Nov 9.5 05:00:21 10° NNE 05:05:01 32° E 05:09:39 10° SSE visible
23 Nov 8.2 06:39:42 10° N 06:44:30 37° WNW 06:49:15 10° SW visible
23 Nov 10.6 18:01:53 10° SW 18:05:28 18° W 18:09:04 10° NW visible
24 Nov 10.4 04:31:46 10° NE 04:35:18 18° E 04:38:47 10° SE visible
24 Nov 7.6 06:10:01 10° N 06:15:12 65° WNW 06:20:21 10° SSW visible
24 Nov 9.7 17:31:05 10° SSW 17:35:45 33° W 17:40:27 10° NNW visible
25 Nov 7.9 05:40:33 10° NNE 05:45:48 71° ESE 05:50:59 10° S visible
25 Nov 8.5 17:01:00 10° S 17:06:09 59° WSW 17:11:22 10° NNW visible
26 Nov 9.1 05:11:20 10° NNE 05:16:15 39° E 05:21:06 10° SSE visible
26 Nov 8.4 06:51:02 10° N 06:55:34 31° WNW 07:00:04 10° SW visible
26 Nov 10.7 18:13:52 10° WSW 18:16:45 15° W 18:19:40 10° NW visible
27 Nov 10.1 04:42:32 10° NE 04:46:34 22° E 04:50:34 10° SE visible
27 Nov 7.8 06:21:14 10° N 06:26:19 53° WNW 06:31:22 10° SW visible
27 Nov 10.0 17:42:37 10° SSW 17:46:59 27° W 17:51:24 10° NW visible
28 Nov 10.8 04:14:48 10° ENE 04:16:45 12° E 04:18:41 10° ESE visible
28 Nov 7.7 05:51:41 10° NNE 05:56:57 87° ESE 06:02:10 10° SSW visible
28 Nov 8.9 17:12:19 10° S 17:17:21 47° W 17:22:26 10° NNW visible
29 Nov 8.6 05:22:23 10° NNE 05:27:27 49° E 05:32:29 10° S visible
29 Nov 10.9 18:26:16 10° WSW 18:28:04 12° W 18:29:53 10° WNW visible
